Time,TemperatureF,DewpointF,PressureIn,WindDirection,WindDirectionDegrees,WindSpeedMPH,WindSpeedGustMPH,Humidity,HourlyPrecipIn,Conditions,Clouds,dailyrainin,SoftwareType,DateUTC
2013-07-24 00:01:00,68.3,65.6,29.75,NW,304,0.0,4.0,91,0.00,,SKC,0.01,VWS V14.01,2013-07-24 04:01:00,
2013-07-24 00:06:00,68.3,65.6,29.75,NW,304,2.0,2.0,91,0.00,,SKC,0.00,VWS V14.01,2013-07-24 04:06:00,
2013-07-24 00:11:00,68.1,65.4,29.75,NW,304,0.0,2.0,91,0.00,,SKC,0.00,VWS V14.01,2013-07-24 04:11:00,
2013-07-24 00:16:00,68.1,65.4,29.75,NW,304,0.0,1.0,91,0.00,,SKC,0.00,VWS V14.01,2013-07-24 04:16:00,
2013-07-24 00:21:00,68.1,65.1,29.75,NW,304,0.0,0.0,90,0.00,,SKC,0.00,VWS V14.01,2013-07-24 04:21:00,
2013-07-24 00:26:00,68.1,65.4,29.75,NW,304,0.0,0.0,91,0.00,,SKC,0.00,VWS V14.01,2013-07-24 04:26:00,
2013-07-24 00:31:00,68.1,65.4,29.75,NW,304,0.0,0.0,91,0.00,,SKC,0.00,VWS V14.01,2013-07-24 04:31:00,
2013-07-24 00:36:00,68.3,65.3,29.75,NW,304,3.0,4.0,90,0.00,,SKC,0.00,VWS V14.01,2013-07-24 04:36:00,
2013-07-24 00:41:00,68.4,65.0,29.75,NW,304,0.0,3.0,89,0.00,,SKC,0.00,VWS V14.01,2013-07-24 04:41:00,
2013-07-24 00:46:00,68.8,65.1,29.75,NW,304,0.0,4.0,88,0.00,,SKC,0.00,VWS V14.01,2013-07-24 04:46:00,
2013-07-24 00:51:00,68.8,65.1,29.75,NW,304,3.0,4.0,88,0.00,,SKC,0.00,VWS V14.01,2013-07-24 04:51:00,
2013-07-24 00:56:00,68.8,65.1,29.75,NW,304,0.0,4.0,88,0.00,,SKC,0.00,VWS V14.01,2013-07-24 04:56:00,
2013-07-24 01:01:00,68.8,65.1,29.75,NW,304,0.0,0.0,88,0.00,,SKC,0.00,VWS V14.01,2013-07-24 05:01:00,
2013-07-24 01:06:00,68.6,65.2,29.75,NW,304,0.0,0.0,89,0.00,,SKC,0.00,VWS V14.01,2013-07-24 05:06:00,
2013-07-24 01:11:00,68.6,65.2,29.75,NW,304,0.0,0.0,89,0.00,,SKC,0.00,VWS V14.01,2013-07-24 05:11:00,
2013-07-24 01:16:00,68.4,65.0,29.75,NW,304,0.0,0.0,89,0.00,,SKC,0.00,VWS V14.01,2013-07-24 05:16:00,
2013-07-24 01:21:00,68.3,64.9,29.75,NW,304,0.0,0.0,89,0.00,,SKC,0.00,VWS V14.01,2013-07-24 05:21:00,
2013-07-24 01:26:00,68.3,65.3,29.75,NW,304,0.0,3.0,90,0.00,,SKC,0.00,VWS V14.01,2013-07-24 05:26:00,
2013-07-24 01:31:00,68.4,65.0,29.75,NW,304,0.0,3.0,89,0.00,,SKC,0.00,VWS V14.01,2013-07-24 05:31:00,
2013-07-24 01:36:00,68.6,65.2,29.75,NW,304,0.0,4.0,89,0.00,,SKC,0.00,VWS V14.01,2013-07-24 05:36:00,
2013-07-24 01:41:00,69.1,65.1,29.75,NW,304,0.0,2.0,87,0.00,,SKC,0.00,VWS V14.01,2013-07-24 05:41:00,
2013-07-24 01:46:00,69.1,65.1,29.73,NW,304,0.0,0.0,87,0.00,,SKC,0.00,VWS V14.01,2013-07-24 05:46:00,
2013-07-24 01:51:00,68.9,65.2,29.73,NW,304,0.0,0.0,88,0.00,,SKC,0.00,VWS V14.01,2013-07-24 05:51:00,
2013-07-24 01:56:00,68.8,65.4,29.73,NW,304,0.0,1.0,89,0.00,,SKC,0.00,VWS V14.01,2013-07-24 05:56:00,
2013-07-24 02:01:00,68.4,65.0,29.73,NW,304,0.0,3.0,89,0.00,,SKC,0.00,VWS V14.01,2013-07-24 06:01:00,
2013-07-24 02:06:00,68.3,64.9,29.73,NW,304,0.0,1.0,89,0.00,,SKC,0.00,VWS V14.01,2013-07-24 06:06:00,
2013-07-24 02:11:00,67.9,64.9,29.73,NW,304,0.0,0.0,90,0.00,,SKC,0.00,VWS V14.01,2013-07-24 06:11:00,
2013-07-24 02:16:00,67.9,65.2,29.72,NW,304,0.0,3.0,91,0.00,,SKC,0.00,VWS V14.01,2013-07-24 06:16:00,
2013-07-24 02:21:00,68.1,65.1,29.72,NW,304,0.0,1.0,90,0.00,,SKC,0.00,VWS V14.01,2013-07-24 06:21:00,
2013-07-24 02:26:00,68.1,65.1,29.72,NW,304,0.0,0.0,90,0.00,,SKC,0.00,VWS V14.01,2013-07-24 06:26:00,
2013-07-24 02:31:00,68.3,64.9,29.71,NW,304,0.0,0.0,89,0.00,,SKC,0.00,VWS V14.01,2013-07-24 06:31:00,
2013-07-24 02:36:00,68.3,64.9,29.71,NW,304,0.0,0.0,89,0.00,,SKC,0.00,VWS V14.01,2013-07-24 06:36:00,
2013-07-24 02:41:00,68.1,65.1,29.71,NW,304,2.0,3.0,90,0.00,,SKC,0.00,VWS V14.01,2013-07-24 06:41:00,
2013-07-24 02:46:00,68.3,64.9,29.70,NW,304,2.0,4.0,89,0.00,,SKC,0.00,VWS V14.01,2013-07-24 06:46:00,
2013-07-24 02:51:00,68.4,64.7,29.70,NW,304,0.0,2.0,88,0.00,,SKC,0.00,VWS V14.01,2013-07-24 06:51:00,
2013-07-24 02:56:00,68.4,65.0,29.70,NW,304,0.0,0.0,89,0.00,,SKC,0.00,VWS V14.01,2013-07-24 06:56:00,
2013-07-24 03:01:00,68.3,64.9,29.70,NW,304,0.0,0.0,89,0.00,,SKC,0.00,VWS V14.01,2013-07-24 07:01:00,
2013-07-24 03:06:00,68.3,64.6,29.70,NW,304,0.0,0.0,88,0.00,,SKC,0.00,VWS V14.01,2013-07-24 07:06:00,
2013-07-24 03:11:00,68.3,64.9,29.70,NW,304,0.0,0.0,89,0.00,,SKC,0.00,VWS V14.01,2013-07-24 07:11:00,
2013-07-24 03:16:00,68.3,64.9,29.70,NW,304,0.0,0.0,89,0.00,,SKC,0.00,VWS V14.01,2013-07-24 07:16:00,
2013-07-24 03:21:00,68.1,64.7,29.70,NW,304,0.0,3.0,89,0.00,,SKC,0.00,VWS V14.01,2013-07-24 07:21:00,
2013-07-24 03:26:00,67.9,64.9,29.70,NW,304,0.0,0.0,90,0.00,,SKC,0.00,VWS V14.01,2013-07-24 07:26:00,
2013-07-24 03:31:00,67.9,64.9,29.70,NW,304,0.0,0.0,90,0.00,,SKC,0.00,VWS V14.01,2013-07-24 07:31:00,
2013-07-24 03:36:00,67.8,64.8,29.70,NW,304,0.0,4.0,90,0.00,,SKC,0.00,VWS V14.01,2013-07-24 07:36:00,
2013-07-24 03:41:00,67.8,64.8,29.70,NW,304,0.0,0.0,90,0.00,,SKC,0.00,VWS V14.01,2013-07-24 07:41:00,
2013-07-24 03:46:00,68.1,64.7,29.68,NW,304,0.0,0.0,89,0.00,,SKC,0.00,VWS V14.01,2013-07-24 07:46:00,
2013-07-24 03:51:00,68.3,64.6,29.68,WNW,300,0.0,9.0,88,0.00,,SKC,0.00,VWS V14.01,2013-07-24 07:51:00,
2013-07-24 03:56:00,68.4,64.7,29.68,WNW,300,0.0,4.0,88,0.00,,SKC,0.00,VWS V14.01,2013-07-24 07:56:00,
2013-07-24 04:01:00,68.6,64.6,29.68,WNW,300,0.0,1.0,87,0.00,,SKC,0.00,VWS V14.01,2013-07-24 08:01:00,
2013-07-24 04:06:00,68.8,64.4,29.68,WNW,300,0.0,0.0,86,0.00,,SKC,0.00,VWS V14.01,2013-07-24 08:06:00,
2013-07-24 04:11:00,68.8,64.4,29.68,WNW,300,0.0,3.0,86,0.00,,SKC,0.00,VWS V14.01,2013-07-24 08:11:00,
2013-07-24 04:16:00,68.6,64.2,29.68,WNW,300,0.0,2.0,86,0.00,,SKC,0.00,VWS V14.01,2013-07-24 08:16:00,
2013-07-24 04:21:00,68.4,64.4,29.68,WNW,300,0.0,3.0,87,0.00,,SKC,0.00,VWS V14.01,2013-07-24 08:21:00,
2013-07-24 04:26:00,68.4,64.4,29.68,WNW,300,0.0,0.0,87,0.00,,SKC,0.00,VWS V14.01,2013-07-24 08:26:00,
2013-07-24 04:31:00,68.4,64.4,29.69,WNW,300,0.0,0.0,87,0.00,,SKC,0.00,VWS V14.01,2013-07-24 08:31:00,
2013-07-24 04:36:00,68.4,64.4,29.69,WNW,300,0.0,0.0,87,0.00,,SKC,0.00,VWS V14.01,2013-07-24 08:36:00,
2013-07-24 04:41:00,68.1,64.4,29.69,WNW,300,2.0,5.0,88,0.00,,SKC,0.00,VWS V14.01,2013-07-24 08:41:00,
2013-07-24 04:46:00,68.3,64.3,29.69,WNW,300,0.0,4.0,87,0.00,,SKC,0.00,VWS V14.01,2013-07-24 08:46:00,
2013-07-24 04:51:00,68.6,64.6,29.69,WNW,300,0.0,0.0,87,0.00,,SKC,0.00,VWS V14.01,2013-07-24 08:51:00,
2013-07-24 04:56:00,68.4,64.4,29.69,WNW,300,0.0,0.0,87,0.00,,SKC,0.00,VWS V14.01,2013-07-24 08:56:00,
2013-07-24 05:01:00,68.4,64.7,29.68,WNW,300,0.0,0.0,88,0.00,,SKC,0.00,VWS V14.01,2013-07-24 09:01:00,
2013-07-24 05:06:00,68.4,64.4,29.68,WNW,300,0.0,0.0,87,0.00,,SKC,0.00,VWS V14.01,2013-07-24 09:06:00,
2013-07-24 05:11:00,68.6,64.6,29.68,WNW,300,0.0,1.0,87,0.00,,SKC,0.00,VWS V14.01,2013-07-24 09:11:00,
2013-07-24 05:16:00,68.4,64.4,29.68,WNW,299,2.0,5.0,87,0.00,,SKC,0.00,VWS V14.01,2013-07-24 09:16:00,
2013-07-24 05:21:00,68.4,64.4,29.68,WNW,299,0.0,2.0,87,0.00,,SKC,0.00,VWS V14.01,2013-07-24 09:21:00,
2013-07-24 05:26:00,68.3,64.3,29.68,WNW,299,2.0,4.0,87,0.00,,SKC,0.00,VWS V14.01,2013-07-24 09:26:00,
2013-07-24 05:31:00,67.9,64.5,29.68,WNW,298,0.0,0.0,89,0.00,,SKC,0.00,VWS V14.01,2013-07-24 09:31:00,
2013-07-24 05:36:00,67.9,64.5,29.68,WNW,299,0.0,3.0,89,0.00,,SKC,0.00,VWS V14.01,2013-07-24 09:36:00,
2013-07-24 05:41:00,67.8,64.4,29.68,WNW,299,0.0,3.0,89,0.00,,SKC,0.00,VWS V14.01,2013-07-24 09:41:00,
2013-07-24 05:46:00,67.8,64.4,29.69,WNW,299,0.0,4.0,89,0.00,,SKC,0.00,VWS V14.01,2013-07-24 09:46:00,
2013-07-24 05:51:00,67.6,64.2,29.69,WNW,299,1.0,4.0,89,0.00,,SKC,0.00,VWS V14.01,2013-07-24 09:51:00,
2013-07-24 05:56:00,67.8,64.4,29.69,WNW,299,0.0,3.0,89,0.00,,SKC,0.00,VWS V14.01,2013-07-24 09:56:00,
2013-07-24 06:01:00,68.1,64.4,29.69,WNW,299,0.0,0.0,88,0.00,,SKC,0.00,VWS V14.01,2013-07-24 10:01:00,
2013-07-24 06:06:00,68.1,64.4,29.69,WNW,299,0.0,3.0,88,0.00,,SKC,0.00,VWS V14.01,2013-07-24 10:06:00,
2013-07-24 06:11:00,68.1,64.4,29.69,WNW,299,0.0,4.0,88,0.00,,SKC,0.00,VWS V14.01,2013-07-24 10:11:00,
2013-07-24 06:16:00,68.1,64.4,29.71,WNW,299,0.0,4.0,88,0.00,,SKC,0.00,VWS V14.01,2013-07-24 10:16:00,
2013-07-24 06:21:00,68.3,64.6,29.71,WNW,299,0.0,0.0,88,0.00,,SKC,0.00,VWS V14.01,2013-07-24 10:21:00,
2013-07-24 06:26:00,68.3,64.6,29.71,WNW,299,0.0,4.0,88,0.00,,SKC,0.00,VWS V14.01,2013-07-24 10:26:00,
2013-07-24 06:31:00,68.1,64.4,29.72,WNW,299,0.0,4.0,88,0.00,,SKC,0.00,VWS V14.01,2013-07-24 10:31:00,
2013-07-24 06:36:00,68.1,64.4,29.72,WNW,299,0.0,0.0,88,0.00,,SKC,0.00,VWS V14.01,2013-07-24 10:36:00,
2013-07-24 06:41:00,68.1,64.7,29.72,WNW,299,1.0,3.0,89,0.00,,SKC,0.00,VWS V14.01,2013-07-24 10:41:00,
2013-07-24 06:46:00,67.9,64.5,29.71,WNW,299,2.0,3.0,89,0.00,,SKC,0.00,VWS V14.01,2013-07-24 10:46:00,
2013-07-24 06:50:00,68.1,64.7,29.71,WNW,299,0.0,0.0,89,0.00,,SKC,0.00,VWS V14.01,2013-07-24 10:50:00,
2013-07-24 06:55:00,68.4,65.0,29.71,WNW,299,0.0,1.0,89,0.00,,SKC,0.00,VWS V14.01,2013-07-24 10:55:00,
2013-07-24 07:00:00,68.6,64.9,29.72,WNW,299,0.0,5.0,88,0.00,,SKC,0.00,VWS V14.01,2013-07-24 11:00:00,
2013-07-24 07:05:00,69.3,65.3,29.72,WNW,299,3.0,4.0,87,0.00,,SKC,0.00,VWS V14.01,2013-07-24 11:05:00,
2013-07-24 07:10:00,70.3,65.9,29.72,WNW,298,0.0,3.0,86,0.00,,SKC,0.00,VWS V14.01,2013-07-24 11:10:00,
2013-07-24 07:15:00,70.6,65.9,29.73,WNW,299,0.0,4.0,85,0.00,,SKC,0.00,VWS V14.01,2013-07-24 11:15:00,
2013-07-24 07:20:00,70.9,66.5,29.73,WNW,299,3.0,3.0,86,0.00,,SKC,0.00,VWS V14.01,2013-07-24 11:20:00,
2013-07-24 07:25:00,71.3,66.9,29.73,WNW,299,0.0,4.0,86,0.00,,SKC,0.00,VWS V14.01,2013-07-24 11:25:00,
2013-07-24 07:30:00,71.5,66.4,29.73,WNW,297,0.0,5.0,84,0.00,,SKC,0.00,VWS V14.01,2013-07-24 11:30:00,
2013-07-24 07:36:00,72.1,67.0,29.73,WNW,297,1.0,1.0,84,0.00,,SKC,0.00,VWS V14.01,2013-07-24 11:36:00,
2013-07-24 07:41:00,72.5,66.7,29.73,WNW,297,0.0,2.0,82,0.00,,SKC,0.00,VWS V14.01,2013-07-24 11:41:00,
2013-07-24 07:46:00,73.0,67.5,29.73,WNW,297,2.0,3.0,83,0.00,,SKC,0.00,VWS V14.01,2013-07-24 11:46:00,
2013-07-24 07:51:00,72.7,67.2,29.73,WNW,297,0.0,2.0,83,0.00,,SKC,0.00,VWS V14.01,2013-07-24 11:51:00,
2013-07-24 07:56:00,72.8,66.3,29.73,West,271,0.0,10.0,80,0.00,,SKC,0.00,VWS V14.01,2013-07-24 11:56:00,
2013-07-24 08:01:00,72.5,66.7,29.74,West,271,0.0,3.0,82,0.00,,SKC,0.00,VWS V14.01,2013-07-24 12:01:00,
2013-07-24 08:06:00,72.5,67.1,29.74,West,271,0.0,0.0,83,0.00,,SKC,0.00,VWS V14.01,2013-07-24 12:06:00,
2013-07-24 08:11:00,73.2,67.7,29.74,West,271,0.0,0.0,83,0.00,,SKC,0.00,VWS V14.01,2013-07-24 12:11:00,
2013-07-24 08:16:00,73.5,67.3,29.74,West,271,0.0,1.0,81,0.00,,SKC,0.00,VWS V14.01,2013-07-24 12:16:00,
2013-07-24 08:21:00,74.0,68.2,29.74,West,271,0.0,0.0,82,0.00,,SKC,0.00,VWS V14.01,2013-07-24 12:21:00,
2013-07-24 08:26:00,74.7,68.5,29.74,West,271,0.0,1.0,81,0.00,,SKC,0.00,VWS V14.01,2013-07-24 12:26:00,
2013-07-24 08:31:00,75.4,68.8,29.74,West,271,0.0,0.0,80,0.00,,SKC,0.00,VWS V14.01,2013-07-24 12:31:00,
2013-07-24 08:36:00,76.0,68.3,29.74,West,271,0.0,3.0,77,0.00,,SKC,0.00,VWS V14.01,2013-07-24 12:36:00,
2013-07-24 08:41:00,76.3,68.6,29.74,West,271,0.0,1.0,77,0.00,,SKC,0.00,VWS V14.01,2013-07-24 12:41:00,
2013-07-24 08:46:00,76.5,69.5,29.74,West,268,1.0,3.0,79,0.00,,SKC,0.00,VWS V14.01,2013-07-24 12:46:00,
2013-07-24 08:51:00,76.7,69.3,29.74,West,268,0.0,3.0,78,0.00,,SKC,0.00,VWS V14.01,2013-07-24 12:51:00,
2013-07-24 08:56:00,77.0,68.5,29.74,West,268,0.0,0.0,75,0.00,,SKC,0.00,VWS V14.01,2013-07-24 12:56:00,
2013-07-24 09:01:00,77.4,68.5,29.75,West,261,2.0,5.0,74,0.00,,SKC,0.00,VWS V14.01,2013-07-24 13:01:00,
2013-07-24 09:06:00,77.9,68.2,29.75,WSW,258,2.0,3.0,72,0.00,,SKC,0.00,VWS V14.01,2013-07-24 13:06:00,
2013-07-24 09:10:00,78.3,68.5,29.75,WSW,257,0.0,2.0,72,0.00,,SKC,0.00,VWS V14.01,2013-07-24 13:10:00,
2013-07-24 09:15:00,78.8,69.0,29.74,WSW,257,0.0,2.0,72,0.00,,SKC,0.00,VWS V14.01,2013-07-24 13:15:00,
2013-07-24 09:20:00,79.4,67.1,29.74,NW,316,1.0,9.0,66,0.00,,SKC,0.00,VWS V14.01,2013-07-24 13:20:00,
2013-07-24 09:25:00,79.6,66.8,29.74,NW,305,3.0,9.0,65,0.00,,SKC,0.00,VWS V14.01,2013-07-24 13:25:00,
2013-07-24 09:30:00,79.4,67.5,29.75,NW,304,5.0,6.0,67,0.00,,SKC,0.00,VWS V14.01,2013-07-24 13:30:00,
2013-07-24 09:36:00,79.0,66.7,29.75,NW,307,5.0,6.0,66,0.00,,SKC,0.00,VWS V14.01,2013-07-24 13:36:00,
2013-07-24 09:41:00,78.8,67.4,29.75,NW,306,3.0,6.0,68,0.00,,SKC,0.00,VWS V14.01,2013-07-24 13:41:00,
2013-07-24 09:46:00,78.5,66.2,29.75,West,264,3.0,7.0,66,0.00,,SKC,0.00,VWS V14.01,2013-07-24 13:46:00,
2013-07-24 09:51:00,78.1,67.5,29.75,WNW,298,1.0,4.0,70,0.00,,SKC,0.00,VWS V14.01,2013-07-24 13:51:00,
2013-07-24 09:55:00,77.6,67.5,29.75,WNW,298,0.0,3.0,71,0.00,,SKC,0.00,VWS V14.01,2013-07-24 13:55:00,
2013-07-24 10:00:00,77.4,66.9,29.75,WNW,290,0.0,6.0,70,0.00,,SKC,0.00,VWS V14.01,2013-07-24 14:00:00,
2013-07-24 10:05:00,77.6,67.5,29.75,WNW,290,3.0,3.0,71,0.00,,SKC,0.00,VWS V14.01,2013-07-24 14:05:00,
2013-07-24 10:10:00,77.7,66.7,29.75,WNW,290,0.0,4.0,69,0.00,,SKC,0.00,VWS V14.01,2013-07-24 14:10:00,
2013-07-24 10:15:00,78.6,67.2,29.75,NW,323,0.0,5.0,68,0.00,,SKC,0.00,VWS V14.01,2013-07-24 14:15:00,
2013-07-24 10:20:00,79.6,67.7,29.75,NW,323,3.0,3.0,67,0.00,,SKC,0.00,VWS V14.01,2013-07-24 14:20:00,
2013-07-24 10:25:00,79.9,66.7,29.75,NW,314,3.0,5.0,64,0.00,,SKC,0.00,VWS V14.01,2013-07-24 14:25:00,
2013-07-24 10:30:00,80.3,67.0,29.74,NW,314,3.0,6.0,64,0.00,,SKC,0.00,VWS V14.01,2013-07-24 14:30:00,
2013-07-24 10:35:00,79.9,66.7,29.74,West,270,0.0,10.0,64,0.00,,SKC,0.00,VWS V14.01,2013-07-24 14:35:00,
2013-07-24 10:40:00,80.1,67.3,29.74,NW,310,1.0,9.0,65,0.00,,SKC,0.00,VWS V14.01,2013-07-24 14:40:00,
2013-07-24 10:45:00,80.5,66.3,29.75,West,275,9.0,10.0,62,0.00,,SKC,0.00,VWS V14.01,2013-07-24 14:45:00,
2013-07-24 10:50:00,80.9,65.7,29.75,NNW,343,3.0,9.0,60,0.00,,SKC,0.00,VWS V14.01,2013-07-24 14:50:00,
2013-07-24 10:55:00,81.2,66.5,29.75,NNW,339,0.0,4.0,61,0.00,,SKC,0.00,VWS V14.01,2013-07-24 14:55:00,
2013-07-24 11:00:00,81.8,65.6,29.74,NW,316,0.0,4.0,58,0.00,,SKC,0.00,VWS V14.01,2013-07-24 15:00:00,
2013-07-24 11:05:00,82.6,67.3,29.74,NW,319,2.0,5.0,60,0.00,,SKC,0.00,VWS V14.01,2013-07-24 15:05:00,
2013-07-24 11:10:00,82.2,66.5,29.74,West,267,3.0,9.0,59,0.00,,SKC,0.00,VWS V14.01,2013-07-24 15:10:00,
2013-07-24 11:15:00,82.4,68.6,29.74,West,266,1.0,4.0,63,0.00,,SKC,0.00,VWS V14.01,2013-07-24 15:15:00,
2013-07-24 11:20:00,82.4,67.6,29.74,WSW,240,13.0,18.0,61,0.00,,SKC,0.00,VWS V14.01,2013-07-24 15:20:00,
2013-07-24 11:25:00,82.0,67.2,29.74,WNW,300,10.0,11.0,61,0.00,,SKC,0.00,VWS V14.01,2013-07-24 15:25:00,
2013-07-24 11:30:00,81.4,65.7,29.75,NW,305,3.0,12.0,59,0.00,,SKC,0.00,VWS V14.01,2013-07-24 15:30:00,
2013-07-24 11:35:00,81.1,64.9,29.75,West,278,4.0,7.0,58,0.00,,SKC,0.00,VWS V14.01,2013-07-24 15:35:00,
2013-07-24 11:40:00,81.1,66.9,29.75,West,281,0.0,5.0,62,0.00,,SKC,0.00,VWS V14.01,2013-07-24 15:40:00,
2013-07-24 11:45:00,81.2,68.3,29.75,West,264,2.0,5.0,65,0.00,,SKC,0.00,VWS V14.01,2013-07-24 15:45:00,
2013-07-24 11:50:00,81.2,66.5,29.75,West,266,3.0,5.0,61,0.00,,SKC,0.00,VWS V14.01,2013-07-24 15:50:00,
2013-07-24 11:55:00,80.9,67.6,29.75,West,274,3.0,5.0,64,0.00,,SKC,0.00,VWS V14.01,2013-07-24 15:55:00,
2013-07-24 12:01:00,80.1,65.9,29.75,WNW,292,1.0,7.0,62,0.00,,SKC,0.00,VWS V14.01,2013-07-24 16:01:00,
2013-07-24 12:06:00,79.9,66.2,29.75,WNW,292,0.0,1.0,63,0.00,,SKC,0.00,VWS V14.01,2013-07-24 16:06:00,
2013-07-24 12:11:00,80.1,68.2,29.75,WNW,292,0.0,0.0,67,0.00,,SKC,0.00,VWS V14.01,2013-07-24 16:11:00,
2013-07-24 12:16:00,80.1,67.3,29.75,WNW,292,0.0,0.0,65,0.00,,SKC,0.00,VWS V14.01,2013-07-24 16:16:00,
2013-07-24 12:20:00,80.1,68.2,29.75,WNW,292,0.0,3.0,67,0.00,,SKC,0.00,VWS V14.01,2013-07-24 16:20:00,
2013-07-24 12:25:00,80.1,69.0,29.75,WNW,292,0.0,1.0,69,0.00,,SKC,0.00,VWS V14.01,2013-07-24 16:25:00,
2013-07-24 12:30:00,80.1,67.3,29.75,WNW,292,0.0,2.0,65,0.00,,SKC,0.00,VWS V14.01,2013-07-24 16:30:00,
2013-07-24 12:35:00,80.3,68.3,29.75,WNW,292,0.0,0.0,67,0.00,,SKC,0.00,VWS V14.01,2013-07-24 16:35:00,
2013-07-24 12:41:00,81.1,70.0,29.75,WNW,292,0.0,0.0,69,0.00,,SKC,0.00,VWS V14.01,2013-07-24 16:41:00,
2013-07-24 12:46:00,81.6,69.2,29.75,WNW,292,0.0,0.0,66,0.00,,SKC,0.00,VWS V14.01,2013-07-24 16:46:00,
2013-07-24 12:51:00,82.4,69.0,29.75,WNW,292,0.0,0.0,64,0.00,,SKC,0.00,VWS V14.01,2013-07-24 16:51:00,
2013-07-24 12:56:00,83.0,68.7,29.75,WNW,292,0.0,2.0,62,0.00,,SKC,0.00,VWS V14.01,2013-07-24 16:56:00,
2013-07-24 13:01:00,82.4,66.7,29.75,WNW,293,0.0,2.0,59,0.00,,SKC,0.00,VWS V14.01,2013-07-24 17:01:00,
2013-07-24 13:05:00,82.6,67.3,29.75,WNW,293,0.0,1.0,60,0.00,,SKC,0.00,VWS V14.01,2013-07-24 17:05:00,
2013-07-24 13:10:00,83.0,67.7,29.75,WNW,293,0.0,1.0,60,0.00,,SKC,0.00,VWS V14.01,2013-07-24 17:10:00,
2013-07-24 13:15:00,83.2,70.2,29.74,WNW,293,0.0,1.0,65,0.00,,SKC,0.00,VWS V14.01,2013-07-24 17:15:00,
2013-07-24 13:20:00,84.0,70.1,29.74,WNW,293,0.0,0.0,63,0.00,,SKC,0.00,VWS V14.01,2013-07-24 17:20:00,
2013-07-24 13:25:00,84.0,68.1,29.74,WNW,293,0.0,1.0,59,0.00,,SKC,0.00,VWS V14.01,2013-07-24 17:25:00,
2013-07-24 13:30:00,83.2,70.2,29.73,WNW,293,0.0,3.0,65,0.00,,SKC,0.00,VWS V14.01,2013-07-24 17:30:00,
2013-07-24 13:35:00,82.8,68.5,29.73,WNW,290,0.0,2.0,62,0.00,,SKC,0.00,VWS V14.01,2013-07-24 17:35:00,
2013-07-24 13:40:00,82.4,69.5,29.73,West,276,2.0,3.0,65,0.00,,SKC,0.00,VWS V14.01,2013-07-24 17:40:00,
2013-07-24 13:45:00,81.6,68.7,29.73,West,274,1.0,2.0,65,0.00,,SKC,0.00,VWS V14.01,2013-07-24 17:45:00,
2013-07-24 13:50:00,81.8,68.9,29.73,West,274,0.0,1.0,65,0.00,,SKC,0.00,VWS V14.01,2013-07-24 17:50:00,
2013-07-24 13:55:00,82.0,70.0,29.73,SW,236,4.0,4.0,67,0.00,,SKC,0.00,VWS V14.01,2013-07-24 17:55:00,
2013-07-24 14:00:00,82.0,70.0,29.73,SW,236,2.0,3.0,67,0.00,,SKC,0.00,VWS V14.01,2013-07-24 18:00:00,
2013-07-24 14:05:00,82.8,68.9,29.73,SW,236,0.0,2.0,63,0.00,,SKC,0.00,VWS V14.01,2013-07-24 18:05:00,
2013-07-24 14:10:00,83.6,67.3,29.73,SW,236,0.0,0.0,58,0.00,,SKC,0.00,VWS V14.01,2013-07-24 18:10:00,
2013-07-24 14:15:00,84.5,69.6,29.73,SW,236,0.0,1.0,61,0.00,,SKC,0.00,VWS V14.01,2013-07-24 18:15:00,
2013-07-24 14:20:00,84.7,65.7,29.73,SW,236,1.0,2.0,53,0.00,,SKC,0.00,VWS V14.01,2013-07-24 18:20:00,
2013-07-24 14:25:00,84.7,65.1,29.73,WSW,252,0.0,3.0,52,0.00,,SKC,0.00,VWS V14.01,2013-07-24 18:25:00,
2013-07-24 14:30:00,84.7,62.3,29.73,North,1,0.0,5.0,47,0.00,,SKC,0.00,VWS V14.01,2013-07-24 18:30:00,
2013-07-24 14:35:00,84.7,66.2,29.73,North,1,0.0,3.0,54,0.00,,SKC,0.00,VWS V14.01,2013-07-24 18:35:00,
2013-07-24 14:40:00,84.7,64.6,29.73,North,1,0.0,0.0,51,0.00,,SKC,0.00,VWS V14.01,2013-07-24 18:40:00,
2013-07-24 14:45:00,85.1,62.6,29.73,WNW,294,1.0,7.0,47,0.00,,SKC,0.00,VWS V14.01,2013-07-24 18:45:00,
2013-07-24 14:50:00,85.3,63.4,29.73,WNW,290,0.0,10.0,48,0.00,,SKC,0.00,VWS V14.01,2013-07-24 18:50:00,
2013-07-24 14:55:00,85.1,67.1,29.73,WNW,298,2.0,4.0,55,0.00,,SKC,0.00,VWS V14.01,2013-07-24 18:55:00,
2013-07-24 15:00:00,85.1,69.2,29.72,WNW,298,0.0,1.0,59,0.00,,SKC,0.00,VWS V14.01,2013-07-24 19:00:00,
2013-07-24 15:05:00,85.7,71.2,29.72,NW,317,1.0,4.0,62,0.00,,SKC,0.00,VWS V14.01,2013-07-24 19:05:00,
2013-07-24 15:10:00,86.1,62.3,29.72,NW,317,1.0,4.0,45,0.00,,SKC,0.00,VWS V14.01,2013-07-24 19:10:00,
2013-07-24 15:15:00,86.1,63.5,29.71,NW,326,0.0,8.0,47,0.00,,SKC,0.00,VWS V14.01,2013-07-24 19:15:00,
2013-07-24 15:20:00,85.9,63.3,29.71,NW,309,7.0,10.0,47,0.00,,SKC,0.00,VWS V14.01,2013-07-24 19:20:00,
2013-07-24 15:25:00,85.7,61.9,29.71,WNW,302,1.0,9.0,45,0.00,,SKC,0.00,VWS V14.01,2013-07-24 19:25:00,
2013-07-24 15:30:00,85.5,63.0,29.71,WNW,297,1.0,9.0,47,0.00,,SKC,0.00,VWS V14.01,2013-07-24 19:30:00,
2013-07-24 15:35:00,85.5,62.4,29.71,NW,305,0.0,8.0,46,0.00,,SKC,0.00,VWS V14.01,2013-07-24 19:35:00,
2013-07-24 15:40:00,85.5,64.8,29.71,West,276,1.0,9.0,50,0.00,,SKC,0.00,VWS V14.01,2013-07-24 19:40:00,
2013-07-24 15:45:00,85.7,64.4,29.71,NW,306,0.0,11.0,49,0.00,,SKC,0.00,VWS V14.01,2013-07-24 19:45:00,
2013-07-24 15:50:00,85.5,64.8,29.71,NW,308,3.0,11.0,50,0.00,,SKC,0.00,VWS V14.01,2013-07-24 19:50:00,
2013-07-24 15:55:00,85.5,62.4,29.71,WNW,291,0.0,11.0,46,0.00,,SKC,0.00,VWS V14.01,2013-07-24 19:55:00,
2013-07-24 16:00:00,85.5,62.4,29.70,NW,307,2.0,6.0,46,0.00,,SKC,0.00,VWS V14.01,2013-07-24 20:00:00,
2013-07-24 16:05:00,85.5,63.0,29.70,WNW,302,3.0,4.0,47,0.00,,SKC,0.00,VWS V14.01,2013-07-24 20:05:00,
2013-07-24 16:10:00,85.7,62.6,29.70,WNW,302,0.0,5.0,46,0.00,,SKC,0.00,VWS V14.01,2013-07-24 20:10:00,
2013-07-24 16:15:00,85.7,64.4,29.70,West,273,3.0,11.0,49,0.00,,SKC,0.00,VWS V14.01,2013-07-24 20:15:00,
2013-07-24 16:20:00,85.7,61.9,29.70,WNW,294,0.0,10.0,45,0.00,,SKC,0.00,VWS V14.01,2013-07-24 20:20:00,
2013-07-24 16:25:00,85.9,60.8,29.70,WNW,297,2.0,6.0,43,0.00,,SKC,0.00,VWS V14.01,2013-07-24 20:25:00,
2013-07-24 16:30:00,86.1,58.3,29.70,NW,309,1.0,7.0,39,0.00,,SKC,0.00,VWS V14.01,2013-07-24 20:30:00,
2013-07-24 16:35:00,86.1,57.5,29.70,WNW,286,3.0,9.0,38,0.00,,SKC,0.00,VWS V14.01,2013-07-24 20:35:00,
2013-07-24 16:40:00,86.1,58.3,29.70,WNW,288,0.0,6.0,39,0.00,,SKC,0.00,VWS V14.01,2013-07-24 20:40:00,
2013-07-24 16:45:00,86.7,60.9,29.70,WNW,288,0.0,1.0,42,0.00,,SKC,0.00,VWS V14.01,2013-07-24 20:45:00,
2013-07-24 16:50:00,87.4,62.8,29.70,WNW,288,0.0,3.0,44,0.00,,SKC,0.00,VWS V14.01,2013-07-24 20:50:00,
2013-07-24 16:55:00,87.4,60.1,29.70,WNW,288,0.0,2.0,40,0.00,,SKC,0.00,VWS V14.01,2013-07-24 20:55:00,
2013-07-24 17:00:00,87.0,64.3,29.70,WNW,288,0.0,1.0,47,0.00,,SKC,0.00,VWS V14.01,2013-07-24 21:00:00,
2013-07-24 17:05:00,86.1,67.5,29.70,WNW,288,0.0,1.0,54,0.00,,SKC,0.00,VWS V14.01,2013-07-24 21:05:00,
2013-07-24 17:10:00,84.5,70.5,29.70,WNW,288,0.0,3.0,63,0.00,,SKC,0.00,VWS V14.01,2013-07-24 21:10:00,
2013-07-24 17:15:00,83.0,70.9,29.70,SE,145,0.0,6.0,67,0.00,,SKC,0.00,VWS V14.01,2013-07-24 21:15:00,
2013-07-24 17:20:00,82.0,70.4,29.70,SSE,148,1.0,2.0,68,0.00,,SKC,0.00,VWS V14.01,2013-07-24 21:20:00,
2013-07-24 17:25:00,81.1,69.1,29.70,SSE,155,1.0,7.0,67,0.00,,SKC,0.00,VWS V14.01,2013-07-24 21:25:00,
2013-07-24 17:30:00,80.5,70.2,29.70,SW,233,0.0,1.0,71,0.00,,SKC,0.00,VWS V14.01,2013-07-24 21:30:00,
2013-07-24 17:35:00,80.5,69.8,29.70,SW,231,0.0,0.0,70,0.00,,SKC,0.00,VWS V14.01,2013-07-24 21:35:00,
2013-07-24 17:40:00,80.5,69.4,29.70,SW,231,0.0,1.0,69,0.00,,SKC,0.00,VWS V14.01,2013-07-24 21:40:00,
2013-07-24 17:45:00,80.3,70.1,29.71,SW,231,0.0,0.0,71,0.00,,SKC,0.00,VWS V14.01,2013-07-24 21:45:00,
2013-07-24 17:50:00,79.9,68.4,29.71,SW,230,0.0,1.0,68,0.00,,SKC,0.00,VWS V14.01,2013-07-24 21:50:00,
2013-07-24 17:55:00,79.9,68.8,29.71,SW,230,0.0,0.0,69,0.00,,SKC,0.00,VWS V14.01,2013-07-24 21:55:00,
2013-07-24 18:00:00,80.1,68.2,29.71,SW,230,0.0,0.0,67,0.00,,SKC,0.00,VWS V14.01,2013-07-24 22:00:00,
2013-07-24 18:05:00,79.8,68.3,29.71,SW,230,0.0,0.0,68,0.00,,SKC,0.00,VWS V14.01,2013-07-24 22:05:00,
2013-07-24 18:10:00,79.6,69.8,29.71,South,190,0.0,0.0,72,0.00,,SKC,0.00,VWS V14.01,2013-07-24 22:10:00,
2013-07-24 18:15:00,79.4,68.3,29.72,South,190,0.0,0.0,69,0.00,,SKC,0.00,VWS V14.01,2013-07-24 22:15:00,
2013-07-24 18:20:00,79.6,68.5,29.72,South,190,0.0,0.0,69,0.00,,SKC,0.00,VWS V14.01,2013-07-24 22:20:00,
2013-07-24 18:25:00,79.2,67.7,29.72,South,190,0.0,0.0,68,0.00,,SKC,0.00,VWS V14.01,2013-07-24 22:25:00,
2013-07-24 18:30:00,78.8,68.6,29.71,South,190,0.0,0.0,71,0.00,,SKC,0.00,VWS V14.01,2013-07-24 22:30:00,
2013-07-24 18:35:00,78.5,68.3,29.71,South,190,0.0,0.0,71,0.00,,SKC,0.00,VWS V14.01,2013-07-24 22:35:00,
2013-07-24 18:40:00,78.3,68.5,29.71,South,190,0.0,0.0,72,0.00,,SKC,0.00,VWS V14.01,2013-07-24 22:40:00,
2013-07-24 18:45:00,78.1,68.8,29.71,South,189,0.0,1.0,73,0.00,,SKC,0.00,VWS V14.01,2013-07-24 22:45:00,
2013-07-24 18:50:00,77.7,67.1,29.71,South,187,0.0,3.0,70,0.00,,SKC,0.00,VWS V14.01,2013-07-24 22:50:00,
2013-07-24 18:55:00,77.7,68.4,29.71,South,188,0.0,0.0,73,0.00,,SKC,0.00,VWS V14.01,2013-07-24 22:55:00,
2013-07-24 19:00:00,77.6,67.5,29.71,South,188,0.0,0.0,71,0.00,,SKC,0.00,VWS V14.01,2013-07-24 23:00:00,
2013-07-24 19:05:00,77.6,67.9,29.71,SSW,197,0.0,3.0,72,0.00,,SKC,0.00,VWS V14.01,2013-07-24 23:05:00,
2013-07-24 19:10:00,77.7,68.0,29.71,SSW,197,0.0,0.0,72,0.00,,SKC,0.00,VWS V14.01,2013-07-24 23:10:00,
2013-07-24 19:15:00,78.1,69.1,29.71,SSW,197,0.0,0.0,74,0.00,,SKC,0.00,VWS V14.01,2013-07-24 23:15:00,
2013-07-24 19:20:00,78.1,68.3,29.71,SSW,197,0.0,0.0,72,0.00,,SKC,0.00,VWS V14.01,2013-07-24 23:20:00,
2013-07-24 19:25:00,78.3,68.5,29.71,SSW,197,0.0,0.0,72,0.00,,SKC,0.00,VWS V14.01,2013-07-24 23:25:00,
2013-07-24 19:30:00,77.7,68.8,29.71,SSW,197,0.0,0.0,74,0.00,,SKC,0.00,VWS V14.01,2013-07-24 23:30:00,
2013-07-24 19:35:00,77.4,68.9,29.71,SSW,197,0.0,0.0,75,0.00,,SKC,0.00,VWS V14.01,2013-07-24 23:35:00,
2013-07-24 19:40:00,77.4,68.9,29.71,SSW,197,0.0,0.0,75,0.00,,SKC,0.00,VWS V14.01,2013-07-24 23:40:00,
2013-07-24 19:45:00,77.2,68.7,29.72,SSW,197,0.0,0.0,75,0.00,,SKC,0.00,VWS V14.01,2013-07-24 23:45:00,
2013-07-24 19:50:00,77.0,69.2,29.72,SSW,197,0.0,0.0,77,0.00,,SKC,0.00,VWS V14.01,2013-07-24 23:50:00,
2013-07-24 19:55:00,77.0,69.6,29.72,SSW,197,0.0,0.0,78,0.00,,SKC,0.00,VWS V14.01,2013-07-24 23:55:00,
2013-07-24 20:00:00,76.5,68.4,29.73,SSW,197,0.0,0.0,76,0.00,,SKC,0.00,VWS V14.01,2013-07-25 00:00:00,
2013-07-24 20:05:00,76.1,68.0,29.73,SSW,197,0.0,0.0,76,0.00,,SKC,0.00,VWS V14.01,2013-07-25 00:05:00,
2013-07-24 20:10:00,76.0,68.3,29.73,SSW,197,0.0,3.0,77,0.00,,SKC,0.00,VWS V14.01,2013-07-25 00:10:00,
2013-07-24 20:15:00,75.6,69.0,29.73,SSW,201,0.0,3.0,80,0.00,,SKC,0.00,VWS V14.01,2013-07-25 00:15:00,
2013-07-24 20:20:00,75.1,68.5,29.73,SSW,202,0.0,0.0,80,0.00,,SKC,0.00,VWS V14.01,2013-07-25 00:20:00,
2013-07-24 20:25:00,74.9,68.7,29.73,SSW,203,0.0,0.0,81,0.00,,SKC,0.00,VWS V14.01,2013-07-25 00:25:00,
2013-07-24 20:30:00,74.6,68.8,29.74,SSW,203,0.0,0.0,82,0.00,,SKC,0.00,VWS V14.01,2013-07-25 00:30:00,
2013-07-24 20:35:00,74.2,68.4,29.74,SSW,203,0.0,0.0,82,0.00,,SKC,0.00,VWS V14.01,2013-07-25 00:35:00,
2013-07-24 20:40:00,74.4,68.2,29.74,SSW,203,0.0,0.0,81,0.00,,SKC,0.00,VWS V14.01,2013-07-25 00:40:00,
2013-07-24 20:45:00,74.0,68.2,29.75,SSW,203,0.0,1.0,82,0.00,,SKC,0.00,VWS V14.01,2013-07-25 00:45:00,
2013-07-24 20:50:00,73.7,68.2,29.75,SSW,205,1.0,1.0,83,0.00,,SKC,0.00,VWS V14.01,2013-07-25 00:50:00,
2013-07-24 20:55:00,73.0,67.9,29.75,SW,216,0.0,3.0,84,0.00,,SKC,0.00,VWS V14.01,2013-07-25 00:55:00,
2013-07-24 21:00:00,72.5,67.1,29.75,SW,216,0.0,0.0,83,0.00,,SKC,0.00,VWS V14.01,2013-07-25 01:00:00,
2013-07-24 21:05:00,72.5,67.4,29.75,SW,216,0.0,0.0,84,0.00,,SKC,0.00,VWS V14.01,2013-07-25 01:05:00,
2013-07-24 21:10:00,72.3,67.9,29.75,SW,216,0.0,0.0,86,0.00,,SKC,0.00,VWS V14.01,2013-07-25 01:10:00,
2013-07-24 21:15:00,72.0,67.2,29.76,SW,216,0.0,0.0,85,0.00,,SKC,0.00,VWS V14.01,2013-07-25 01:15:00,
2013-07-24 21:20:00,71.8,67.4,29.76,SW,216,0.0,0.0,86,0.00,,SKC,0.00,VWS V14.01,2013-07-25 01:20:00,
2013-07-24 21:25:00,71.5,66.8,29.76,SW,219,0.0,3.0,85,0.00,,SKC,0.00,VWS V14.01,2013-07-25 01:25:00,
2013-07-24 21:30:00,71.3,66.9,29.76,SW,219,0.0,0.0,86,0.00,,SKC,0.00,VWS V14.01,2013-07-25 01:30:00,
2013-07-24 21:35:00,71.3,66.6,29.76,SW,219,0.0,0.0,85,0.00,,SKC,0.00,VWS V14.01,2013-07-25 01:35:00,
2013-07-24 21:40:00,71.3,66.9,29.76,SW,229,0.0,3.0,86,0.00,,SKC,0.00,VWS V14.01,2013-07-25 01:40:00,
2013-07-24 21:45:00,71.1,66.4,29.76,SW,229,0.0,0.0,85,0.00,,SKC,0.00,VWS V14.01,2013-07-25 01:45:00,
2013-07-24 21:50:00,70.9,66.2,29.76,SW,230,0.0,2.0,85,0.00,,SKC,0.00,VWS V14.01,2013-07-25 01:50:00,
2013-07-24 21:55:00,70.9,66.8,29.76,SW,229,0.0,1.0,87,0.00,,SKC,0.00,VWS V14.01,2013-07-25 01:55:00,
2013-07-24 22:00:00,70.9,66.8,29.77,SW,229,0.0,0.0,87,0.00,,SKC,0.00,VWS V14.01,2013-07-25 02:00:00,
2013-07-24 22:05:00,70.9,67.2,29.77,SW,229,0.0,0.0,88,0.00,,SKC,0.00,VWS V14.01,2013-07-25 02:05:00,
2013-07-24 22:10:00,70.8,67.1,29.77,SW,229,0.0,0.0,88,0.00,,SKC,0.00,VWS V14.01,2013-07-25 02:10:00,
2013-07-24 22:15:00,70.6,66.9,29.77,SW,229,0.0,0.0,88,0.00,,SKC,0.00,VWS V14.01,2013-07-25 02:15:00,
2013-07-24 22:20:00,70.4,66.0,29.77,SW,229,0.0,2.0,86,0.00,,SKC,0.00,VWS V14.01,2013-07-25 02:20:00,
2013-07-24 22:25:00,70.4,66.0,29.77,SW,229,0.0,0.0,86,0.00,,SKC,0.00,VWS V14.01,2013-07-25 02:25:00,
2013-07-24 22:30:00,70.3,65.9,29.77,SW,229,0.0,0.0,86,0.00,,SKC,0.00,VWS V14.01,2013-07-25 02:30:00,
2013-07-24 22:35:00,69.8,65.8,29.77,SW,229,0.0,0.0,87,0.00,,SKC,0.00,VWS V14.01,2013-07-25 02:35:00,
2013-07-24 22:40:00,69.4,65.4,29.77,SW,229,0.0,0.0,87,0.00,,SKC,0.00,VWS V14.01,2013-07-25 02:40:00,
2013-07-24 22:45:00,69.4,65.7,29.78,SW,231,0.0,2.0,88,0.00,,SKC,0.00,VWS V14.01,2013-07-25 02:45:00,
2013-07-24 22:50:00,69.6,65.6,29.78,SW,231,0.0,3.0,87,0.00,,SKC,0.00,VWS V14.01,2013-07-25 02:50:00,
2013-07-24 22:55:00,69.8,65.4,29.78,SW,231,0.0,1.0,86,0.00,,SKC,0.00,VWS V14.01,2013-07-25 02:55:00,
2013-07-24 23:00:00,69.4,65.4,29.77,WSW,240,2.0,5.0,87,0.00,,SKC,0.00,VWS V14.01,2013-07-25 03:00:00,
2013-07-24 23:06:00,68.9,65.5,29.77,WSW,247,3.0,4.0,89,0.00,,SKC,0.00,VWS V14.01,2013-07-25 03:06:00,
2013-07-24 23:11:00,68.8,65.4,29.77,WSW,247,0.0,3.0,89,0.00,,SKC,0.00,VWS V14.01,2013-07-25 03:11:00,
2013-07-24 23:16:00,68.6,65.6,29.78,WSW,247,0.0,0.0,90,0.00,,SKC,0.00,VWS V14.01,2013-07-25 03:16:00,
2013-07-24 23:21:00,68.4,65.4,29.78,WSW,247,0.0,0.0,90,0.00,,SKC,0.00,VWS V14.01,2013-07-25 03:21:00,
2013-07-24 23:26:00,68.4,65.4,29.78,WSW,247,0.0,0.0,90,0.00,,SKC,0.00,VWS V14.01,2013-07-25 03:26:00,
2013-07-24 23:31:00,68.8,65.8,29.79,WSW,240,0.0,1.0,90,0.00,,SKC,0.00,VWS V14.01,2013-07-25 03:31:00,
2013-07-24 23:37:00,68.9,65.5,29.79,WSW,237,0.0,0.0,89,0.00,,SKC,0.00,VWS V14.01,2013-07-25 03:37:00,
2013-07-24 23:42:00,68.9,65.5,29.79,WSW,237,0.0,0.0,89,0.00,,SKC,0.00,VWS V14.01,2013-07-25 03:42:00,
2013-07-24 23:47:00,68.9,65.8,29.79,WSW,237,0.0,0.0,90,0.00,,SKC,0.00,VWS V14.01,2013-07-25 03:47:00,
2013-07-24 23:52:00,68.9,65.8,29.79,WSW,237,0.0,0.0,90,0.00,,SKC,0.00,VWS V14.01,2013-07-25 03:52:00,
2013-07-24 23:57:00,68.9,65.8,29.79,WSW,237,0.0,0.0,90,0.00,,SKC,0.00,VWS V14.01,2013-07-25 03:57:00,